Oskaloosa, IA

7:36 PM CDT on April 28, 2017 (GMT -0500)
Oskaloosa Municipal

Weather History for KOOA - April, 2013

Change the Weather History Date:

Thursday, April 18, 2013

  Actual Average (KOTM) Record (KOTM)
Temperature  
Mean Temperature 43 °F -  
Max Temperature 52 °F 64 °F 87 °F (1985)
Min Temperature 34 °F 43 °F 19 °F (1983)
Degree Days  
Heating Degree Days 22    
Moisture  
Dew Point 39 °F    
Average Humidity 90    
Maximum Humidity 95    
Minimum Humidity 79    
Precipitation  
Precipitation 0.91 in - - ()
Sea Level Pressure  
Sea Level Pressure 29.59 in    
Wind  
Wind Speed 17 mph (NW)    
Max Wind Speed 28 mph    
Max Gust Speed 36 mph    
Visibility 7 miles    
Events Rain    
Averages and records for this station are not official NWS values.
T = Trace of Precipitation, MM = Missing Value Source: NWS Daily Summary

Daily Weather History Graph

Daily Weather History Graph

Search for Another Location

Airport or City:

Trip Planner

Search our weather history database for the weather conditions in past years. The results will help you decide how hot, cold, wet, or windy it might be!

Date:

Astronomy

Apr. 18, 2013 Rise Set
Actual Time 6:25 AM CDT 7:53 PM CDT
Civil Twilight 5:56 AM CDT 8:22 PM CDT
Nautical Twilight 5:21 AM CDT 8:57 PM CDT
Astronomical Twilight 4:45 AM CDT 9:34 PM CDT
Moon 12:37 PM CDT (4/18) 2:09 AM CDT (4/18)
Length of Visible Light 14h 25m
Length of Day
13h 28m
First Quarter, 52% of the Moon is Illuminated
Apr 18
First Quarter
Apr 25
Full
May 2
Last Quarter
May 9
New
May 17
First Quarter

Hourly Weather History & Observations

Time (CDT) Temp. Windchill Dew Point Humidity Pressure Visibility Wind Dir Wind Speed Gust Speed Precip Events Conditions
12:15 AM 50.4 °F - 48.6 °F 94% 29.66 in 7.0 mi East 18.4 mph - 0.03 in Rain Light Rain
12:55 AM 52.0 °F - 50.2 °F 94% 29.64 in 7.0 mi ESE 17.3 mph 27.6 mph 0.12 in Rain Light Rain
1:15 AM 52.0 °F - 50.0 °F 93% 29.66 in 5.0 mi SE 20.7 mph 27.6 mph 0.06 in Rain Rain
1:35 AM 50.9 °F - 49.1 °F 94% 29.66 in 3.0 mi ESE 16.1 mph 20.7 mph 0.16 in Rain Heavy Rain
1:55 AM 51.6 °F - 49.8 °F 94% 29.62 in 3.0 mi East 17.3 mph 26.5 mph 0.29 in Rain Rain
3:15 AM 50.9 °F - 49.1 °F 94% 29.58 in 7.0 mi NNW 11.5 mph 18.4 mph 0.02 in Rain Rain
3:35 AM 49.5 °F - 47.7 °F 94% 29.59 in 5.0 mi WNW 11.5 mph - 0.05 in Rain Heavy Rain
3:55 AM 47.5 °F - 45.7 °F 93% 29.58 in 4.0 mi NNW 9.2 mph - 0.14 in Rain Heavy Rain
4:15 AM 46.6 °F - 44.8 °F 93% 29.60 in 4.0 mi WNW 8.1 mph - 0.05 in Rain Heavy Rain
4:35 AM 45.9 °F 41.2 °F 44.2 °F 94% 29.62 in 3.0 mi NW 9.2 mph - 0.16 in Rain Heavy Rain
4:55 AM 45.9 °F 41.7 °F 44.2 °F 94% 29.60 in 5.0 mi NNW 8.1 mph - 0.24 in Rain Rain
5:15 AM 45.3 °F 39.7 °F 43.7 °F 94% 29.61 in 5.0 mi NW 11.5 mph - 0.03 in Rain Rain
5:35 AM 43.9 °F 36.8 °F 42.3 °F 94% 29.60 in 5.0 mi NW 15.0 mph - 0.06 in Rain Light Rain
5:55 AM 42.8 °F 35.4 °F 41.0 °F 93% 29.60 in 5.0 mi NNW 15.0 mph - 0.06 in Rain Heavy Rain
6:15 AM 42.4 °F 35.3 °F 41.0 °F 95% 29.60 in 5.0 mi North 13.8 mph - 0.03 in Rain Light Rain
6:35 AM 42.3 °F 35.1 °F 40.8 °F 95% 29.60 in 5.0 mi North 13.8 mph - 0.03 in Rain Light Rain
6:55 AM 42.3 °F 35.5 °F 40.6 °F 94% 29.60 in 7.0 mi North 12.7 mph - 0.03 in   Overcast
7:15 AM 42.1 °F 33.9 °F 40.5 °F 94% 29.59 in 5.0 mi NNE 17.3 mph 21.9 mph N/A   Overcast
7:35 AM 41.9 °F 33.7 °F 40.3 °F 94% 29.57 in 7.0 mi NNE 17.3 mph 23.0 mph N/A   Overcast
7:55 AM 41.9 °F 34.0 °F 40.1 °F 93% 29.57 in 4.0 mi NE 16.1 mph - N/A   Overcast
8:15 AM 42.4 °F 35.7 °F 41.0 °F 95% 29.57 in 5.0 mi NE 12.7 mph - N/A   Overcast
8:35 AM 42.8 °F 36.2 °F 41.0 °F 93% 29.57 in 10.0 mi NE 12.7 mph - N/A   Overcast
8:55 AM 43.0 °F 36.8 °F 41.4 °F 94% 29.56 in 10.0 mi NNE 11.5 mph - N/A   Overcast
9:15 AM 43.2 °F 35.9 °F 41.5 °F 94% 29.51 in 10.0 mi ENE 15.0 mph - N/A   Overcast
9:35 AM 43.7 °F 36.9 °F 42.1 °F 94% 29.50 in 10.0 mi East 13.8 mph - N/A   Overcast
9:55 AM 44.6 °F 38.4 °F 43.0 °F 94% 29.51 in 7.0 mi East 12.7 mph - N/A   Overcast
10:15 AM 45.0 °F 39.7 °F 43.3 °F 94% 29.50 in 10.0 mi East 10.4 mph - N/A   Overcast
10:35 AM 45.5 °F 41.8 °F 43.9 °F 94% 29.49 in 3.0 mi East 6.9 mph - N/A   Overcast
10:55 AM 46.6 °F - 44.8 °F 93% 29.47 in 1.0 mi East 6.9 mph - N/A   Overcast
11:15 AM 47.7 °F - 46.0 °F 94% 29.45 in 0.8 mi ESE 9.2 mph - N/A Rain Light Rain
11:35 AM 48.4 °F - 46.8 °F 94% 29.45 in 0.8 mi SW 4.6 mph - N/A   Light Drizzle
11:55 AM 45.3 °F 36.9 °F 43.7 °F 94% 29.49 in 1.2 mi West 23.0 mph 26.5 mph 0.02 in Rain Rain
12:15 PM 43.2 °F 34.5 °F 41.5 °F 94% 29.48 in 1.2 mi WNW 20.7 mph - 0.01 in Rain Light Rain
12:35 PM 41.9 °F 32.3 °F 40.1 °F 93% 29.49 in 1.5 mi WNW 23.0 mph 32.2 mph 0.01 in Rain Light Rain
1:15 PM 41.2 °F 31.4 °F 39.6 °F 94% 29.50 in 1.5 mi WNW 23.0 mph - N/A Rain Light Rain
1:35 PM 41.0 °F 31.4 °F 39.4 °F 94% 29.51 in 1.5 mi West 21.9 mph 28.8 mph N/A Rain Light Rain
1:55 PM 40.5 °F 30.0 °F 38.8 °F 94% 29.53 in 7.0 mi West 25.3 mph 28.8 mph N/A   Overcast
2:15 PM 40.1 °F 30.2 °F 38.3 °F 93% 29.53 in 7.0 mi WNW 21.9 mph 26.5 mph N/A   Overcast
2:35 PM 41.0 °F 31.4 °F 38.8 °F 92% 29.53 in 10.0 mi WNW 21.9 mph 28.8 mph N/A   Overcast
2:55 PM 40.8 °F 30.7 °F 37.6 °F 88% 29.54 in 10.0 mi West 24.2 mph 28.8 mph N/A   Overcast
3:35 PM 39.4 °F 29.0 °F 35.6 °F 86% 29.56 in 7.0 mi West 23.0 mph - N/A   Overcast
3:55 PM 39.6 °F 28.7 °F 35.4 °F 85% 29.56 in 10.0 mi West 25.3 mph - N/A   Overcast
4:15 PM 39.4 °F 29.5 °F 35.2 °F 85% 29.56 in 10.0 mi West 20.7 mph 25.3 mph N/A   Overcast
4:35 PM 39.6 °F 29.2 °F 35.6 °F 86% 29.57 in 7.0 mi West 23.0 mph - N/A   Overcast
4:55 PM 39.7 °F 29.0 °F 34.5 °F 82% 29.58 in 7.0 mi West 25.3 mph 32.2 mph N/A   Overcast
5:15 PM 39.2 °F 28.3 °F 33.6 °F 80% 29.60 in 10.0 mi West 25.3 mph 33.4 mph N/A   Overcast
5:35 PM 39.0 °F 28.0 °F 33.3 °F 80% 29.61 in 10.0 mi West 25.3 mph 31.1 mph N/A   Overcast
5:55 PM 37.9 °F 26.8 °F 32.7 °F 81% 29.62 in 7.0 mi West 24.2 mph 35.7 mph N/A   Overcast
6:15 PM 37.8 °F 26.8 °F 32.5 °F 81% 29.62 in 10.0 mi West 23.0 mph 31.1 mph N/A   Overcast
6:35 PM 36.9 °F 24.9 °F 31.8 °F 82% 29.63 in 10.0 mi West 26.5 mph 34.5 mph N/A   Overcast
6:55 PM 36.5 °F 24.2 °F 31.3 °F 81% 29.65 in 10.0 mi West 27.6 mph 32.2 mph N/A   Overcast
7:15 PM 36.5 °F 25.7 °F 30.6 °F 79% 29.65 in 10.0 mi West 20.7 mph 33.4 mph N/A   Overcast
7:35 PM 36.1 °F 24.2 °F 30.7 °F 81% 29.66 in 10.0 mi West 25.3 mph 35.7 mph N/A   Overcast
7:55 PM 36.0 °F 23.9 °F 30.4 °F 80% 29.67 in 10.0 mi West 25.3 mph 34.5 mph N/A   Overcast
8:15 PM 35.8 °F 24.2 °F 30.2 °F 80% 29.68 in 10.0 mi West 23.0 mph 29.9 mph N/A   Overcast
8:35 PM 35.8 °F 23.4 °F 29.8 °F 79% 29.69 in 10.0 mi West 26.5 mph 31.1 mph N/A   Overcast
10:35 PM 35.2 °F 25.8 °F 30.2 °F 82% 29.70 in 10.0 mi WNW 15.0 mph 19.6 mph N/A   Overcast
10:55 PM 34.7 °F 24.0 °F 30.2 °F 84% 29.70 in 10.0 mi West 18.4 mph 25.3 mph N/A Rain Light Rain
11:15 PM 34.7 °F 23.7 °F 30.2 °F 84% 29.69 in 10.0 mi West 19.6 mph 24.2 mph N/A   Overcast
11:35 PM 34.7 °F 22.5 °F 30.0 °F 83% 29.69 in 10.0 mi West 24.2 mph - N/A   Overcast
11:55 PM 34.2 °F 23.3 °F 29.8 °F 84% 29.69 in 10.0 mi West 18.4 mph 27.6 mph N/A   Overcast